Weather History for PADU - September, 2013

Change the Weather History Date:

Friday, September 20, 2013

  Actual Average Record
Temperature  
Mean Temperature 54 °F -  
Max Temperature 60 °F 54 °F 69 °F (1993)
Min Temperature 48 °F 41 °F 35 °F (1989)
Degree Days  
Heating Degree Days 12    
Growing Degree Days 4 (Base 50)    
Moisture  
Dew Point 46 °F    
Average Humidity 76    
Maximum Humidity 88    
Minimum Humidity 67    
Precipitation  
Precipitation 0.27 in - - ()
Sea Level Pressure  
Sea Level Pressure 29.16 in    
Wind  
Wind Speed 17 mph (SSW)    
Max Wind Speed 59 mph    
Max Gust Speed 79 mph    
Visibility 8 miles    
Events Rain    
Averages and records for this station are not official NWS values.
T = Trace of Precipitation, MM = Missing Value Source: NWS Daily Summary

Daily Weather History Graph

Daily Weather History Graph

Search for Another Location

Airport or City:

Trip Planner

Search our weather history database for the weather conditions in past years. The results will help you decide how hot, cold, wet, or windy it might be!

Date:

Astronomy

Sep. 20, 2013 Rise Set
Actual Time 8:49 AM AKDT 9:08 PM AKDT
Civil Twilight 8:13 AM AKDT 9:43 PM AKDT
Nautical Twilight 7:31 AM AKDT 10:25 PM AKDT
Astronomical Twilight 6:47 AM AKDT 11:09 PM AKDT
Moon 9:26 PM AKDT (9/20) 10:37 AM AKDT (9/20)
Length of Visible Light 13h 29m
Length of Day
12h 19m
Full, 98% of the Moon is Illuminated
Sep 20
Full
Sep 26
Last Quarter
Oct 4
New
Oct 11
First Quarter
Oct 18
Full

Hourly Weather History & Observations

Time (AKDT) Temp. Dew Point Humidity Pressure Visibility Wind Dir Wind Speed Gust Speed Precip Events Conditions
12:56 AM 48.0 °F 44.1 °F 86% 29.84 in 10.0 mi East 5.8 mph - N/A   Overcast
1:56 AM 48.9 °F 42.1 °F 77% 29.79 in 10.0 mi ESE 4.6 mph - N/A   Scattered Clouds
2:56 AM 50.0 °F 43.0 °F 77% 29.75 in 10.0 mi ESE 5.8 mph - N/A   Clear
3:56 AM 52.0 °F 44.1 °F 74% 29.70 in 10.0 mi Variable 5.8 mph - N/A   Overcast
4:49 AM 53.6 °F 44.6 °F 72% 29.61 in 10.0 mi South 11.5 mph - N/A   Overcast
4:56 AM 53.1 °F 45.0 °F 74% 29.62 in 10.0 mi SSE 11.5 mph - N/A   Overcast
5:09 AM 53.6 °F 46.4 °F 77% 29.57 in 10.0 mi SSE 10.4 mph - N/A   Overcast
5:21 AM 51.8 °F 46.4 °F 82% 29.56 in 10.0 mi SSE 12.7 mph 18.4 mph N/A   Mostly Cloudy
5:56 AM 53.1 °F 48.0 °F 83% 29.54 in 10.0 mi South 9.2 mph - 0.00 in Rain Light Rain
6:09 AM 51.8 °F 48.2 °F 88% 29.49 in 10.0 mi SE 3.5 mph - 0.00 in Rain Light Rain
6:10 AM 51.8 °F 48.2 °F 88% 29.48 in 10.0 mi Variable 4.6 mph - 0.00 in Rain Light Rain
6:56 AM 55.0 °F 50.0 °F 83% 29.40 in 7.0 mi SE 13.8 mph - 0.04 in Rain Light Rain
7:56 AM 55.0 °F 48.9 °F 80% 29.31 in 7.0 mi SSE 11.5 mph 28.8 mph 0.08 in Rain Light Rain
8:13 AM 55.4 °F 48.2 °F 77% 29.25 in 8.0 mi SSE 12.7 mph 18.4 mph 0.06 in Rain Light Rain
8:14 AM 55.4 °F 48.2 °F 77% 29.26 in 6.0 mi SSE 13.8 mph 18.4 mph 0.06 in Rain Light Rain
8:16 AM 55.4 °F 48.2 °F 77% 29.25 in 8.0 mi SSE 15.0 mph 18.4 mph 0.06 in Rain Light Rain
8:28 AM 55.4 °F 48.2 °F 77% 29.23 in 8.0 mi SSE 11.5 mph 21.9 mph 0.06 in Rain Light Rain
8:40 AM 55.4 °F 48.2 °F 77% 29.20 in 10.0 mi SSE 15.0 mph 19.6 mph 0.06 in Rain Light Rain
8:56 AM 55.9 °F 50.0 °F 80% 29.18 in 10.0 mi SE 12.7 mph - 0.06 in   Overcast
9:12 AM 57.2 °F 50.0 °F 77% 29.14 in 10.0 mi South 11.5 mph 19.6 mph 0.00 in   Overcast
9:20 AM 57.2 °F 50.0 °F 77% 29.14 in 8.0 mi South 11.5 mph - 0.00 in Rain Light Rain
9:49 AM 57.2 °F 50.0 °F 77% 29.11 in 10.0 mi SE 11.5 mph - 0.00 in   Overcast
9:56 AM 57.0 °F 50.0 °F 77% 29.12 in 10.0 mi Variable 3.5 mph - 0.00 in   Overcast
10:56 AM 59.0 °F 50.0 °F 72% 29.07 in 10.0 mi WSW 9.2 mph 19.6 mph N/A   Overcast
11:56 AM 59.0 °F 48.9 °F 69% 29.01 in 10.0 mi WSW 10.4 mph 18.4 mph N/A   Overcast
12:56 PM 57.0 °F 46.0 °F 67% 28.96 in 10.0 mi WSW 28.8 mph 38.0 mph N/A   Overcast
1:00 PM 57.2 °F 46.4 °F 67% 28.94 in 10.0 mi WSW 24.2 mph 38.0 mph N/A   Overcast
1:33 PM 55.4 °F 46.4 °F 72% 28.90 in 8.0 mi SW 25.3 mph 34.5 mph 0.00 in Rain Light Rain
1:56 PM 55.0 °F 46.0 °F 72% 28.89 in 9.0 mi SW 34.5 mph 43.7 mph 0.00 in Rain Light Rain
1:58 PM 55.4 °F 46.4 °F 72% 28.87 in 9.0 mi SW 33.4 mph 44.9 mph 0.00 in Rain Light Rain
1:59 PM 55.4 °F 46.4 °F 72% 28.87 in 9.0 mi SW 34.5 mph 44.9 mph 0.00 in Rain Light Rain
2:43 PM 53.6 °F 46.4 °F 77% 28.81 in 4.0 mi SW 29.9 mph 44.9 mph 0.00 in Rain Light Rain
2:53 PM 53.6 °F 44.6 °F 72% 28.81 in 3.0 mi SW 34.5 mph 46.0 mph 0.00 in Rain Light Rain
2:56 PM 53.1 °F 45.0 °F 74% 28.82 in 3.0 mi WSW 38.0 mph 57.5 mph 0.00 in Rain Light Rain
2:59 PM 53.6 °F 44.6 °F 72% 28.79 in 2.5 mi SW 46.0 mph 62.1 mph 0.00 in Rain Light Rain
3:47 PM 53.6 °F 44.6 °F 72% 28.80 in 3.0 mi SW 34.5 mph 59.8 mph N/A Rain Light Rain
3:56 PM 52.0 °F 45.0 °F 77% 28.81 in 1.5 mi SW 38.0 mph 52.9 mph N/A Rain Light Rain
4:03 PM 51.8 °F 44.6 °F 76% 28.80 in 5.0 mi WSW 20.7 mph 46.0 mph 0.00 in Rain Light Rain
4:30 PM 53.6 °F 44.6 °F 72% 28.82 in 5.0 mi WSW 40.3 mph 62.1 mph 0.01 in Rain Light Rain
4:54 PM 53.6 °F 44.6 °F 72% 28.85 in 1.8 mi West 58.7 mph 73.6 mph 0.01 in Rain Light Rain
4:56 PM 53.1 °F 45.0 °F 74% 28.87 in 1.8 mi West 57.5 mph 79.4 mph 0.01 in Rain Light Rain
5:56 PM 52.0 °F 45.0 °F 77% 28.95 in 1.8 mi West 43.7 mph 56.4 mph 0.03 in Rain Light Rain
6:08 PM 51.8 °F 44.6 °F 76% 28.94 in 3.0 mi West 40.3 mph 61.0 mph 0.01 in Rain Light Rain
6:54 PM 51.8 °F 44.6 °F 76% 28.99 in 8.0 mi West 41.4 mph 52.9 mph 0.02 in Rain Light Rain
6:56 PM 51.1 °F 44.1 °F 77% 29.01 in 8.0 mi West 40.3 mph 52.9 mph 0.02 in Rain Light Rain
7:56 PM 50.0 °F 43.0 °F 77% 29.09 in 10.0 mi WNW 31.1 mph 39.1 mph 0.00 in   Overcast
8:56 PM 51.1 °F 43.0 °F 74% 29.16 in 10.0 mi WNW 18.4 mph 29.9 mph N/A   Overcast
9:56 PM 50.0 °F 42.1 °F 74% 29.21 in 10.0 mi WNW 27.6 mph 38.0 mph 0.00 in Rain Light Rain
10:56 PM 48.0 °F 42.1 °F 80% 29.27 in 8.0 mi NW 34.5 mph 47.2 mph 0.03 in Rain Light Rain
11:56 PM 48.0 °F 41.0 °F 77% 29.33 in 9.0 mi NW 34.5 mph 46.0 mph 0.00 in Rain Light Rain